Location: Plzen
(49.7500°N, 13.3670°E)
Time: 02:34:09
(UTC+01:00)

ISS - Pass Details

Date: 03 October 2020
Orbit: 417 x 420 km, 51.6° (Epoch: 25 October)

Event Time Altitude Azimuth Distance (km) Brightness Sun altitude
Rises 19:30:53 0° 288° (WNW) 2,369 1.9 -9.0°
Reaches altitude 10° 19:33:00 10° 286° (WNW) 1,504 0.6 -9.4°
Maximum altitude 19:36:21 66° 204° (SSW) 462 -3.5 -9.9°
Enters shadow 19:39:14 13° 122° (ESE) 1,318 -1.8 -10.4°
